Home   Weather   Talcahuano   Past weeks

Flag for Chile Past Weather in Talcahuano, Chile — Yesterday and Last 2 Weeks

Now
50 °F

Sunny.


Feels Like: 48 °F
Forecast: 54 / 64 °F
Wind: 5 mph from Southwest

Location: Concepcion Airport

Current Time: Dec 6, 2016 at 7:31:46 am

Latest Report: Dec 6, 2016 at 7:00 am


Visibility: 10 mi

Pressure: 30.07 "Hg

Humidity: 88%

Dew Point: 46 °F

Location of TalcahuanoLocation

Past Weather in Talcahuano — Graph

°F

Talcahuano Temperature Yesterday

Maximum temperature yesterday: 66 °F (at 2:00 pm)
Minimum temperature yesterday: 48 °F (at 7:00 am)
Average temperature yesterday: 59 °F

High & Low Weather Summary for the Past Weeks

 TemperatureHumidityPressure
High90 °F (Nov 29, 4:00 pm)100% (Nov 21, 6:00 am)30.18 "Hg (Nov 21, 6:00 am)
Low48 °F (Dec 5, 7:00 am)26% (Nov 29, 4:00 pm)29.77 "Hg (Nov 29, 7:00 pm)
Average61 °F77%29.99 "Hg
* Reported Nov 21 6:00 am — Dec 6 6:00 am, Talcahuano, Weather by CustomWeather, © 2016

Note: Actual official high and low records may vary slightly from our data, if they occured in-between our weather recording intervals... More about our weather records

Advertising

Talcahuano Weather History for the Previous 24 Hours

Scroll right to see more
 ConditionsComfort  
Time TempWeatherWind HumidityBarometerVisibility
6:00 am
Tue, Dec 6
48 °FClear.3 mph94%30.07 "Hg10 mi
5:00 am50 °FClear.2 mph94%30.07 "Hg10 mi
4:00 am50 °FClear.3 mph94%30.07 "Hg10 mi
3:00 am50 °FClear.2 mph88%30.07 "Hg10 mi
2:00 am52 °FClear.5 mph88%30.09 "Hg10 mi
1:00 am52 °FClear.3 mph88%30.09 "Hg10 mi
12:00 am55 °FClear.6 mph82%30.09 "Hg10 mi
11:00 pm
Mon, Dec 5
57 °FPassing clouds.10 mph72%30.09 "HgN/A
10:00 pm59 °FClear.13 mph68%30.09 "Hg10 mi
9:00 pm61 °FPassing clouds.13 mph63%30.09 "HgN/A
8:00 pm63 °FSunny.15 mph59%30.09 "Hg10 mi
7:00 pm64 °FPassing clouds.15 mph56%30.09 "HgN/A
6:00 pm64 °FPassing clouds.18 mph52%30.12 "HgN/A
5:00 pm66 °FPassing clouds.17 mph52%30.12 "HgN/A
4:00 pm66 °FSunny.16 mph52%30.12 "Hg10 mi
3:00 pm66 °FPassing clouds.14 mph56%30.15 "HgN/A
2:00 pm66 °FPassing clouds.14 mph52%30.15 "HgN/A
1:00 pm64 °FPassing clouds.14 mph64%30.15 "HgN/A
12:00 pm64 °FPassing clouds.12 mph56%30.15 "HgN/A
11:00 am64 °FScattered clouds.7 mph60%30.15 "HgN/A
10:00 am61 °FPartly sunny.10 mph72%30.15 "HgN/A
9:00 am59 °FPartly sunny.1 mph77%30.12 "HgN/A
8:00 am54 °FPassing clouds.2 mph88%30.12 "HgN/A
7:00 am48 °FScattered clouds.3 mph94%30.12 "HgN/A
Weather by CustomWeather, © 2016

See weather overviewHow to use our weather pages